User: anonymous
Location: Caltech
(34.1382°N, 118.1253°W)
Time: 21:19:48
(UTC-07:00)
Language:

CZ-4B DEB - Orbit

View from above orbital plane
View from above orbital plane
View from above satellite
View from above satellite

Ground track
Ground track

The orbit data is extracted from the following two-line orbital elements,

1 27433U 02024D   14264.98583594  .00000181  00000-0  12356-3 0  9333
2 27433 098.8379 229.2024 0014725 359.9305 041.9036 14.11616835636171
Epoch (UTC): 21 September 2014 23:39:36
Eccentricity: 0.0014725
inclination: 98.8379°
perigee height: 843 km
apogee height: 864 km
right ascension of ascending node: 229.2024°
argument of perigee: 359.9305°
revolutions per day: 14.11616835
mean anomaly at epoch: 41.9036°
orbit number at epoch: 63617

The dashed part of the orbit path shows where the satellite is in the earth's shadow,  

DLR